Preview of NWS' New Version of Forecast
This preview is not operational and should not be used for support decisions.

Regional Weather Roundup (RWR)

Issued by National Weather Service (NWS)

                            
000
ASUS43 KMKX 200721
RWRWI 

WISCONSIN REGIONAL WEATHER ROUNDUP
NATIONAL WEATHER SERVICE MILWAUKEE/SULLIVAN WI
200 AM CDT THU JUN 20 2019

NOTE: "FAIR" INDICATES FEW OR NO CLOUDS BELOW 12,000 FEET WITH NO
SIGNIFICANT WEATHER AND/OR OBSTRUCTIONS TO VISIBILITY.

WIZ001-002-006>008-014>016-023>028-200800-
NORTHWEST WISCONSIN
  
CITY           SKY/WX    TMP DP  RH WIND       PRES   REMARKS
SUPERIOR ARPT  FAIR      51  49  94 NE6       29.82F                  
ASHLAND        MOCLDY    42  42 100 CALM      29.83S FOG              
HAYWARD        FAIR      50  47  89 N7        29.81S                  
SIREN          FAIR      56  46  69 E3        29.79S                  
CUMBERLAND     FAIR      59  45  58 NE9       29.78F                  
RICE LAKE      FAIR      58  52  81 NE5       29.79S                  
CHETEK         FAIR      60  50  70 NE5       29.77F                  
LADYSMITH      FAIR      54  47  78 NE5       29.81S                  
EAU CLAIRE     FAIR      59  52  77 NE6       29.75S                  
MENOMONIE      FAIR      57  49  75 E3        29.75S                  
NEW RICHMOND   FAIR      62  47  59 E9        29.76S                  
OSCEOLA        FAIR      63  49  61 E7        29.78F                  
$$
 
WIZ003>005-009-010-017-018-200800-
NORTH CENTRAL WISCONSIN
  
CITY           SKY/WX    TMP DP  RH WIND       PRES   REMARKS
MANITOWISH WTR FAIR      44  44 100 CALM      29.82S                  
ARBOR VITAE    FAIR      49  47  93 NE3       29.81F                  
WOODRUFF       FAIR      49  47  93 NE3       29.81F                  
RHINELANDER    FAIR      48  41  76 CALM      29.81S                  
EAGLE RIVER    FAIR      42  41  97 CALM      29.82S                  
LAND O LAKES   FAIR      41  40  99 CALM      29.84S                  
PHILLIPS       FAIR      46  46 100 CALM      29.80S                  
TOMAHAWK       FAIR      42  41  95 CALM      29.81S                  
MEDFORD        FAIR      50  48  93 CALM      29.79S                  
MERRILL        FAIR      46  46  98 CALM      29.80S                  
$$
 
WIZ029-030-035-036-043>047-200800-
CENTRAL WISCONSIN
  
CITY           SKY/WX    TMP DP  RH WIND       PRES   REMARKS
WAUSAU         FAIR      55  43  63 NE5       29.76F                  
MOSINEE        FAIR      54  46  76 NE5       29.78F                  
MARSHFIELD     FAIR      58  53  84 NE6       29.76S                  
STEVENS POINT  FAIR      53  51  94 NE7       29.76F                  
WAUPACA        FAIR      59  52  76 N6        29.75S                  
WAUTOMA        FAIR      57  53  86 N7        29.74F                  
WISC RAPIDS    FAIR      59  53  80 N8        29.76F                  
CAMP DOUGLAS   FAIR      52  52 100 W3        29.74F FOG              
$$
 
WIZ011>013-019>022-031-037>040-048>050-200800-
NORTHEAST WISCONSIN
  
CITY           SKY/WX    TMP DP  RH WIND       PRES   REMARKS
ANTIGO         FAIR      49  44  82 NE6       29.80S                  
SHAWANO        MOCLDY    58  51  76 NE8       29.76S                  
OCONTO         CLOUDY    56  46  68 N5        29.75S                  
STURGEON BAY   FAIR      58  47  66 NE6       29.75F                  
GREEN BAY      FAIR      61  53  75 NE14      29.73F                  
MANITOWOC      FAIR      57  48  72 NE9       29.72F                  
APPLETON       FAIR      57  48  72 N9        29.72F                  
CLINTONVILLE   FAIR      57  49  73 N6        29.76S                  
OSHKOSH        FAIR      61  55  81 NE12G22   29.71F                  
$$
 
WIZ032>034-041-042-053>061-200800-
SOUTHWEST WISCONSIN
  
CITY           SKY/WX    TMP DP  RH WIND       PRES   REMARKS
LA CROSSE      MOCLDY    63  56  78 S3        29.73R                  
SPARTA         MOCLDY    52  52  98 CALM      29.75S                  
VIROQUA        FAIR      57  56  97 NE3       29.74S                  
BOSCOBEL       MOCLDY    58  56  93 CALM      29.72S                  
PRAIRIE DU CHI FAIR      57  56  96 CALM      29.72S                  
PLATTEVILLE    FAIR      58  58 100 N6        29.71S                  
$$

WIZ056-057-062-063-064-067-068-200800-
SOUTH CENTRAL WISCONSIN
  
CITY           SKY/WX    TMP DP  RH WIND       PRES   REMARKS
REEDSBURG      FAIR      55  55 100 CALM      29.72F                  
BARABOO/DELLS  FAIR      55  53  92 CALM      29.72F                  
LONE ROCK      FAIR      57  56  96 CALM      29.71F                  
MINERAL POINT  FAIR      59  59 100 N5        29.71S                  
MADISON        FAIR      57  53  86 N7        29.69F                  
MIDDLETON      FAIR      58  55  88 N3        29.70F                  
WATERTOWN      CLOUDY    58  56  94 N5        29.68F                  
MONROE         FAIR      57  55  95 N8        29.67F                  
JANESVILLE     CLOUDY    59  57  94 N5        29.67S                  
$$
 
WIZ051-052-058>065-066-070>072-200800-
SOUTHEAST WISCONSIN
  
CITY           SKY/WX    TMP DP  RH WIND       PRES   REMARKS
MILWAUKEE      LGT RAIN  56  53  90 N15G22    29.66F                  
WAUKESHA       DRIZZLE   54  54 100 N8        29.68F                  
MILWAUKEE/TIMM CLOUDY    55  52  88 N10G16    29.68F                  
RACINE         LGT RAIN  54  52  93 N14       29.67F                  
KENOSHA        LGT RAIN  57  56  96 N7        29.64F                  
FOND DU LAC    FAIR      62  54  74 NE14G22   29.71F                  
SHEBOYGAN      FAIR      58  53  84 N13G20    29.69F                  
WEST BEND      MOCLDY    55  54  94 N8        29.69F                  
JUNEAU         FAIR      57  54  88 N9        29.71S                  
$$

LSZ147-162-200800-
LAKE SUPERIOR
  
STATION/POSITION TIME  TEMP    WIND        PRES    WAVE
                       AIR SEA DIR/SP/G            HT/PER
                 (UTC) (F)     (DEG/KT/KT) (MB)    (FT/S)
W MID LAKE BUOY  0650   44 38  150/  6/  8 1010.3R   0
$$
 
LMZ867-665-643>646-200800-
LAKE MICHIGAN
  
STATION/POSITION TIME  TEMP    WIND        PRES    WAVE
                       AIR SEA DIR/SP/G            HT/PER
                 (UTC) (F)     (DEG/KT/KT) (MB)    (FT/S)
N MID LAKE BUOY  0700   45     360/  8/  8 1008.1
NORTHPORT PIER   0640   57     350/  4/  5 1007.8F
KEWAUNEE LAKESHO 0636   57      30/  9/ 14 1005.9F
SHEBOYGAN LAKESH 0700   54      10/ 18/ 19 1005.4F
MILWAUKEE LAKESH 0650   54     360/ 17/ 20   N/A
S MID LAKE BUOY  0700   48      10/ 10/ 12 1003.7
KENOSHA   LAKESH 0700   56     360/ 14/ 17 1003.7
$$

TC  - TEMPERATURE IN CELSIUS
VSB - VISIBILITY IN STATUTE MILES
WCI - WIND CHILL INDEX
HX  - HEAT INDEX